COSMOS 2251 DEB, 35890

Orbit data source: Space-Track

COSMOS 2251 DEB, 35890 is space debris in LEO originally from a launch on Wed, 16 Jun 1993 UTC launched from the Plesetsk Missile And Space Complex (PKMTR). The debris from Iridium 33, an American commercial communications satellite, has been tracked extensively since its accidental collision with the defunct Russian satellite Cosmos 2251 in 2009. This event, occurring at high speed in low Earth orbit (LEO), generated thousands of pieces of space debris, significantly increasing the risk of further collisions. The Iridium 33 debris cloud has impacted space traffic management and orbital debris mitigation strategies, making it a subject of ongoing study in space situational awareness.

Loading next visibility...
Identifier
35890, 1993-036AUD
Orbit
LEO
Country
Flag of CISCIS
Related business
Manufacturer
Unknown
Mission
Spacecraft
Bus & Motor
Unknown
Mass
Unknown
Launch date (UTC)
1993-06-16 (33 years ago)
Launch vehicle
Unknown
Launch site
Plesetsk Missile And Space Complex (PKMTR)
Object type
Payload
Rocket body
Debris
Shape & HBR
Unknown shape, 0.1 m
Radar Cross Section
Small (<0.1 m²)

Expand to show TLE details & history
Last TLE update: 1 day ago

TLE from 1 day ago
0 COSMOS 2251 DEB
1 35890U 93036AUD 26206.15470766  .00006478  00000-0  13113-2 0  9994
2 35890  73.9334 172.3486 0055450 248.6954 110.8287 14.60516978684242
Epoch: 2026-07-25T03:42Z
TLE epoch observation values (Epoch: 2026-07-25T03:42:46.741Z)
Latitude
0.00003°
Longitude
173.7828°
Altitude
708.271 km
Speed
7.494 km/s
True Right ascension
11h 29m 23s
True Declination
0° 00' 00"
Sunlit
Object was in daylight at epoch
Visualization orbit readout
Latitude
Unknown
Longitude
Unknown
Altitude
Unknown
Speed
Unknown
Apparent Right ascension
Unknown
Apparent Declination
Unknown
Sunlit
N/A
Visualization observer readout
Local Sidereal Time
00:19:14
Azimuth
Unknown
Elevation
Unknown
Doppler factor
Unknown
Orbital elements
Apogee altitude
728.299 km
Perigee altitude
649.923 km
Semi-major axis
7,067.248 km
Eccentricity
0.00555
Inclination
73.9334°
RAAN
172.3486°
Arg. of periapsis
248.6954°
True anomaly
111.42111°
Mean anomaly
110.8287°
Eccentric anomaly
111.12505°
Mean motion
3.65315 °/min
Orbital period
98.55 mins
BSTAR
0.0013113
Loading maneuver chart data...
Computing Atmospheric mass density...

Documentation

Showing up to 5 results
|